Terminal Aerodrome Forecast
Issued by NWS

Home | Current Version | Previous Version | Graphics & Text | Print | Product List | Glossary On
Versions: 1 2 3 4 5 6 7 8 9 10 11 12 13 14 15 16 17 18 19 20 21
000
FTUS43 KICT 300520
TAFRSL
TAF
KRSL 300520Z 3006/0106 33012KT 5SM BR VCSH SCT004 OVC015
      TEMPO 3006/3009 BKN004
     FM300900 32013KT 4SM BR OVC009
     FM301800 29016KT P6SM BKN040
     FM010500 31014KT P6SM OVC025=

USA.gov is the U.S. government's official web portal to all federal, state and local government web resources and services.